TIME,DELAY(SENSOR),PRES,OXYGEN,RAWTEMP,T(OPTODE),TCPHASE,FLUOR,BETA(BETA700),BETA(BETA412),BETA(BETA440),CDOM,C(CSC),ED(ED411.90),ED(ED443.80),ED(ED489.40),ED(ED554.70),LU(LU412.20),LU(LU443.80),LU(LU489.40),LU(LU555.00),COMP,TILTX,TILTY,CHECK
1364941069,5806,807.0700073242188000,183.8619995117187500,480.2827148437500000,8.1399412155151370,38.5966606140136700,52,105,97,78,80,11488,2146964059,2147518518,2147292626,2147506267,2147087680,2146926665,2147713380,2147124324,786,-1,8,50772
1364944665,5806,937.9899902343750000,231.9530029296875000,541.4843139648438000,6.2364540100097660,36.8067893981933600,52,103,97,79,80,11488,2146965376,2147516480,2147296649,2147519661,2147087259,2146920502,2147725412,2147121636,1955,-1,8,5572
1364948265,5804,978.4899902343750000,246.3697967529297000,553.8170166015625000,5.8495750427246090,36.2885818481445300,51,105,98,79,80,11489,2146964662,2147518893,2147299757,2147520292,2147087003,2146924525,2147730934,2147121636,249,-1,8,50963
1364951865,5803,983.2999877929688000,250.1977996826172000,555.9033813476562000,5.7840061187744140,36.1375503540039060,52,105,99,79,81,11485,2146965467,2147520630,2147302774,2147522880,2147086089,2146922742,2147733412,2147121097,1511,-1,8,25827
1364955465,5806,984.6799926757812000,250.4501037597656200,558.5191040039062000,5.7017521858215330,36.1727790832519500,52,103,98,78,80,11484,2146963501,2147518125,2147298870,2147520137,2147085750,2146920201,2147726244,2147123273,3581,0,8,26672
1364959065,5806,978.9299926757812000,255.0131072998047000,560.1082153320312000,5.6517539024353030,35.9803390502929700,53,107,99,80,80,11478,2146963949,2147516662,2147300617,2147524553,2147086592,2146916544,2147728429,2147121654,536,-1,8,26106
1364962665,5807,987.9099731445312000,256.0277099609375000,560.0355224609375000,5.6540408134460450,35.9303817749023440,52,111,97,79,80,11482,2146963117,2147516260,2147301586,2147522267,2147087981,2146924114,2147729965,2147121344,734,-1,8,51008
1364966265,5808,983.8499755859375000,255.8215942382812500,560.2664794921875000,5.6467738151550290,35.9445114135742200,51,103,98,79,80,11485,2146962322,2147522468,2147300406,2147526006,2147086957,2146917046,2147731355,2147120740,352,-1,8,39509
1364969865,5808,980.9799804687500000,257.4638977050781000,561.6018066406250000,5.6047420501708980,35.8903617858886700,52,104,98,80,80,11482,2146962157,2147523090,2147300525,2147523547,2147090294,2146915794,2147727954,2147122258,7,-1,8,55924
1364973465,5808,984.2899780273438000,258.9794006347656000,562.4727783203125000,5.5773200988769530,35.8344688415527340,52,105,99,80,80,11482,2146965997,2147521947,2147300918,2147523145,2147088320,2146913865,2147731492,2147121133,319,-1,8,27161
1364977065,5808,984.9199829101562000,259.9176940917969000,562.4572753906250000,5.5778059959411620,35.7904510498046900,52,103,99,80,81,11480,2146964516,2147520429,2147304603,2147523209,2147089526,2146914596,2147729901,2147122340,24,-1,8,43227
1364980665,5807,990.0599975585938000,257.8815917968750000,561.2864990234375000,5.6146678924560550,35.8651695251464840,52,103,97,79,80,11476,2146963739,2147520091,2147299236,2147521289,2147089307,2146917293,2147728950,2147122605,907,-1,8,33840
1364984265,5804,993.9099731445312000,258.1588134765625000,560.1121826171875000,5.6516280174255370,35.8300895690918000,52,103,98,81,81,11480,2146965330,2147519049,2147299501,2147523456,2147087945,2146922962,2147729526,2147121216,2927,-1,8,51164
1364987865,5805,987.6199951171875000,257.8409118652344000,561.1422729492188000,5.6192069053649900,35.8642005920410160,52,106,98,79,80,11481,2146966290,2147522404,2147303021,2147524388,2147087524,2146917897,2147730907,2147121737,3000,-1,8,38136
1364991465,5804,993.9799804687500000,259.6099853515625000,561.2241821289062000,5.6166310310363770,35.7823982238769500,51,103,100,80,81,11478,2146965769,2147519680,2147299547,2147521627,2147088923,2146914368,2147728164,2147119497,3303,-1,8,28971
1364995065,5805,999.9099731445312000,258.4386901855469000,560.4318237304688000,5.6415710449218750,35.8230285644531250,51,105,99,80,80,11480,2146961773,2147520640,2147299885,2147523218,2147088027,2146914724,2147727460,2147119808,239,-1,8,16405
1364998665,5807,997.3900146484375000,253.8889007568359400,560.0136718750000000,5.6547279357910160,36.0328102111816400,52,105,99,79,81,11476,2146963145,2147519826,2147299629,2147523318,2147085833,2146919835,2147730029,2147118866,1,-1,8,20746
1365002265,5806,986.1799926757812000,252.0184020996093800,560.8682250976562000,5.6278338432312010,36.1391792297363300,54,103,99,82,81,11473,2146962541,2147517851,2147299867,2147523894,2147087506,2146918747,2147731940,2147118153,3210,-1,8,34830
1365005865,5807,1001.3200073242188000,257.3324890136719000,560.8378906250000000,5.6287899017333980,35.8833503723144500,52,105,99,80,80,11474,2146963254,2147521225,2147301312,2147525302,2147087954,2146918784,2147730368,2147121938,460,-1,8,5634
1365009465,5805,998.1400146484375000,254.4297027587890600,559.5532836914062000,5.6692137718200680,35.9983406066894500,52,104,99,81,81,11473,2146963209,2147518308,2147301394,2147523712,2147090121,2146917851,2147730925,2147117193,247,0,8,39346
1365013065,5806,994.3400268554688000,254.4067993164062500,560.8228759765625000,5.6292610168457030,36.0225296020507800,52,102,98,80,80,11462,2146960813,2147521142,2147300361,2147524964,2147089042,2146917348,2147728603,2147118427,178,-1,8,56431
1365016665,5804,994.9199829101562000,255.5805969238281200,560.9329833984375000,5.6257929801940920,35.9683799743652340,52,104,100,79,80,11475,2146964946,2147518692,2147297782,2147524763,2147084233,2146919113,2147727177,2147121435,3555,-1,8,52725
1365020265,5808,996.8599853515625000,257.3800964355469000,560.5714721679688000,5.6371731758117680,35.8758010864257800,51,106,99,79,80,11468,2146963904,2147523117,2147297801,2147521179,2147085193,2146916388,2147729984,2147120384,5,-1,8,63081
1365023865,5809,996.8699951171875000,257.0989074707031000,560.7852172851562000,5.6304488182067870,35.8934402465820300,52,103,98,79,81,11472,2146960045,2147518390,2147300324,2147523419,2147085092,2146919296,2147728914,2147122157,3589,-1,8,46781
1365027465,5804,997.6900024414062000,255.8833007812500000,561.2144775390625000,5.6169338226318360,35.9587211608886700,52,109,98,79,80,11472,2146964416,2147519259,2147296877,2147522898,2147089115,2146917348,2147727460,2147119222,3131,-1,8,19844
1365031065,5804,997.6400146484375000,257.7120971679687500,561.4503784179688000,5.6095099449157715,35.8760795593261700,51,102,99,81,80,11411,2146966144,2147522267,2147303085,2147521929,2147086528,2146920950,2147727058,2147120201,2582,-1,8,8516
1365034665,5805,996.6400146484375000,258.9007873535156000,561.9625854492188000,5.5933837890625000,35.8291587829589840,52,102,99,80,80,11416,2146962148,2147521590,2147299684,2147521627,2147091401,2146922450,2147733604,2147121316,3486,0,8,43546
1365038265,5807,995.1599731445312000,259.6057128906250000,562.9119262695312000,5.5634899139404300,35.8131599426269500,51,107,98,79,81,11415,2146965696,2147521965,2147299501,2147525970,2147086272,2146917357,2147729892,2147121051,138,-1,8,45222
1365041865,5808,997.2100219726562000,260.9762878417969000,563.0808715820312000,5.5581698417663570,35.7520294189453100,51,102,98,79,80,11412,2146965449,2147518208,2147300233,2147519826,2147086299,2146916891,2147733440,2147117357,720,-1,8,10012
1365045465,5807,996.8599853515625000,261.2178039550781000,563.2324218750000000,5.5533981323242190,35.7434196472168000,52,104,100,80,81,11409,2146962020,2147522093,2147300626,2147519716,2147088091,2146918116,2147733622,2147121627,251,0,8,57043
1365049065,5806,994.8099975585938000,259.3767089843750000,562.2156982421875000,5.5854148864746090,35.8115615844726560,52,103,101,81,81,11408,2146964480,2147524123,2147297545,2147525110,2147086509,2146918793,2147731666,2147121078,3177,-1,8,27586
1365052665,5804,996.0700073242188000,260.7308044433594000,563.1597290039062000,5.5556888580322270,35.7645301818847660,52,108,103,79,81,11411,2146959424,2147518838,2147300690,2147521344,2147088146,2146921033,2147731867,2147120612,3519,-1,8,37382
1365056265,5806,996.9299926757812000,259.7091979980469000,563.1514282226562000,5.5559501647949220,35.8124313354492200,52,106,99,79,80,11407,2146961801,2147521188,2147298934,2147523154,2147088740,2146918189,2147730596,2147119588,3178,-1,8,31868
1365059865,5808,993.7600097656250000,258.2839965820312500,563.0587158203125000,5.5588698387146000,35.8785896301269500,52,102,101,80,82,11404,2146962706,2147520886,2147300178,2147522459,2147089362,2146923721,2147727149,2147119853,3566,-1,8,3324
1365063465,5808,997.9699707031250000,260.8337097167969000,563.1447143554688000,5.5561599731445310,35.7594108581543000,52,102,99,80,81,11405,2146961901,2147519168,2147297216,2147523757,2147088128,2146913462,2147729965,2147121801,300,-1,8,3745
1365067065,5804,996.7299804687500000,258.5989990234375000,562.7698974609375000,5.5679631233215330,35.8582496643066400,52,104,99,80,81,11403,2146962294,2147521435,2147299492,2147523648,2147087963,2146919826,2147732580,2147119094,524,-1,8,58734
1365070665,5804,996.1599731445312000,259.8074951171875000,563.1292114257812000,5.5566501617431640,35.8075714111328100,52,105,100,79,81,11405,2146961846,2147518253,2147301531,2147522816,2147086564,2146917028,2147731904,2147118116,3490,-1,8,27842
1365074265,5809,1000.5100097656250000,258.7943115234375000,561.5631713867188000,5.6059589385986330,35.8268699645996100,52,114,99,79,80,11400,2146962596,2147519625,2147296585,2147523712,2147085952,2146920301,2147728603,2147120274,42,-1,8,8413
1365077865,5807,998.1300048828125000,255.6268005371093800,561.9509887695312000,5.5937500000000000,35.9844398498535160,52,105,101,80,81,11399,2146960987,2147519250,2147297691,2147525430,2147089517,2146918299,2147726948,2147120512,21,0,8,11343
1365081465,5805,1002.1799926757812000,258.4733886718750000,561.4171142578125000,5.6105589866638180,35.8392105102539060,53,104,100,79,80,11400,2146959533,2147520512,2147300141,2147520292,2147087753,2146916470,2147728603,2147121910,3162,-1,8,23059
1365085065,5806,1004.5700073242188000,259.4717102050781000,561.3859863281250000,5.6115341186523440,35.7913208007812500,52,104,99,81,81,11399,2146966802,2147520521,2147300288,2147520448,2147089728,2146916708,2147725824,2147122660,3107,-1,8,53259
1365086156,5807,995.1900024414062000,258.1886901855469000,561.4069213867188000,5.6108779907226560,35.8525009155273440,53,105,100,79,80,11451,2146962998,2147520475,2147299163,2147523346,2147091364,2146917677,2147729846,2147121737,2909,-1,8,64319
